Location: Cactus School
(34.5700°N, 118.0931°W)
Time: 09:31:56
(UTC-07:00)

S-56A Canister/Altair - Pass Details

Date: 21 April 2024
Orbit: 638 x 2488 km, 38.9° (Epoch: 29 May)

Event Time Altitude Azimuth Distance (km) Brightness Sun altitude
Rises 19:11:34 0° 277° (W) 3,292 13.7 2.8°
Reaches altitude 10° 19:13:44 10° 281° (WNW) 2,509 12.8 2.4°
Maximum altitude 19:19:37 62° 3° (N) 1,237 8.7 1.2°
Drops below altitude 10° 19:28:33 10° 83° (E) 3,729 10.5 -0.6°
Sets 19:32:25 0° 87° (E) 5,023 11.1 -1.4°
